Simultaneous Nadir Overpasses (SNOs) Predictions

Prediction of SNOs between NOAA-19 and TERRA Satellite Orbit:

Table of predicted SNOs for the next 14.0 days since TLE Epoch: 10/19/2012
Index Date (NOAA-19) Time (NOAA-19) NOAA-19 Lat,Lon Date (TERRA) Time (TERRA) TERRA Lat,Lon Distance(km) Time Diff (sec)
1 10/20/2012 04:15:10 -69.70, -65.18 10/20/2012 04:16:20 -69.59, -63.97 48.63 70
2 10/20/2012 05:05:58 69.07, 103.00 10/20/2012 05:05:55 69.04, 102.96 2.91 3
3 10/20/2012 05:56:46 -68.17, -88.57 10/20/2012 05:55:37 -68.27, -90.37 75.18 69
4 10/22/2012 08:59:35 -69.20,-135.58 10/22/2012 09:00:46 -69.18,-135.58 1.47 71
5 10/22/2012 09:50:32 69.06, 31.87 10/22/2012 09:50:13 69.08, 31.92 3.00 19
6 10/24/2012 13:44:09 -69.17, 153.33 10/24/2012 13:45:05 -69.15, 153.30 2.77 56
7 10/24/2012 14:35:06 69.05, -39.25 10/24/2012 14:34:32 69.03, -39.20 2.49 34
8 10/26/2012 18:28:43 -69.15, 82.22 10/26/2012 18:29:23 -69.15, 82.22 0.16 40
9 10/26/2012 19:19:39 68.99,-110.31 10/26/2012 19:18:51 68.98,-110.35 2.24 48
10 10/28/2012 23:13:17 -69.13, 11.11 10/28/2012 23:13:41 -69.13, 11.13 0.98 24
11 10/29/2012 00:04:13 68.99, 178.56 10/29/2012 00:03:09 68.96, 178.56 3.67 64
12 10/31/2012 03:57:51 -69.12, -60.01 10/31/2012 03:57:59 -69.09, -59.98 3.12 8
13 10/31/2012 04:48:42 68.73, 107.79 10/31/2012 04:47:29 68.81, 107.30 21.60 73
14 11/02/2012 07:51:29 69.68, 60.80 11/02/2012 07:52:39 69.58, 61.97 46.37 70
15 11/02/2012 08:42:24 -69.06,-131.07 11/02/2012 08:42:17 -69.04,-131.12 2.97
